BOX457 VHHH-VTBS

Flight info

Callsign BOX457
Flight time N/A
Altitude 34000
Route PECAN V10 SIKOU/K0913S1040 A202 ASSAD/K0915F340 A202 VILAO/N0494F340 A202 RAMEI W42 PAKRI Y13 RUKSA DCT EASTE EASTE1C
Aircraft B77L/H-SDE1E2E3FGHIJ2J3J4J5M1RWXY/LB1D1

Departure

Time N/A
Airport Hong Kong International Airport (VHHH)

Arrival

Time 2026-05-04 10:25
Airport Suvarnabhumi Airport (VTBS)
Time Latitude Longitude Altitude Speed Heading
2026-05-04 09:55 14.64403 102.17791 33875 ft 471 kts 252°
2026-05-04 09:56 14.62407 102.11349 33491 ft 476 kts 252°
2026-05-04 09:56 14.61386 102.08057 32612 ft 484 kts 252°
2026-05-04 09:56 14.60361 102.04753 31847 ft 483 kts 252°
2026-05-04 09:56 14.59337 102.01453 31043 ft 484 kts 252°
2026-05-04 09:57 14.58311 101.98149 30367 ft 482 kts 252°
2026-05-04 09:57 14.57290 101.94864 29694 ft 480 kts 252°
2026-05-04 09:57 14.56252 101.91607 29000 ft 476 kts 250°
2026-05-04 09:57 14.55040 101.88440 28395 ft 471 kts 248°
2026-05-04 09:58 14.53790 101.85334 27771 ft 467 kts 247°
2026-05-04 09:58 14.52521 101.82268 27183 ft 463 kts 246°
2026-05-04 09:58 14.51227 101.79246 26591 ft 459 kts 246°
2026-05-04 10:00 14.42830 101.58465 22538 ft 440 kts 248°
2026-05-04 10:00 14.41680 101.55560 21997 ft 436 kts 248°
2026-05-04 10:02 14.33845 101.35831 18368 ft 414 kts 248°
2026-05-04 10:04 14.22530 101.21517 16587 ft 363 kts 219°
2026-05-04 10:04 14.20566 101.19868 16299 ft 365 kts 220°
2026-05-04 10:04 14.18598 101.18212 16003 ft 365 kts 220°
2026-05-04 10:04 14.16639 101.16563 15720 ft 363 kts 220°
2026-05-04 10:05 14.14685 101.14919 15416 ft 362 kts 219°
2026-05-04 10:05 14.12747 101.13289 15171 ft 358 kts 219°
2026-05-04 10:05 14.10821 101.11670 14821 ft 356 kts 219°
2026-05-04 10:05 14.08912 101.10066 14413 ft 353 kts 219°
2026-05-04 10:06 14.07017 101.08474 14031 ft 350 kts 219°
2026-05-04 10:06 14.05133 101.06892 13622 ft 348 kts 220°
2026-05-04 10:06 14.03264 101.05322 13208 ft 344 kts 220°
2026-05-04 10:08 13.93443 100.97079 12545 ft 297 kts 219°
2026-05-04 10:08 13.91833 100.95728 12408 ft 300 kts 219°
2026-05-04 10:08 13.90204 100.94361 12274 ft 303 kts 219°
2026-05-04 10:08 13.88564 100.92986 12116 ft 305 kts 219°
2026-05-04 10:09 13.86933 100.91618 11933 ft 302 kts 219°
2026-05-04 10:09 13.85305 100.90254 11674 ft 300 kts 219°
2026-05-04 10:09 13.83688 100.88936 11338 ft 293 kts 213°
2026-05-04 10:09 13.81821 100.88121 10744 ft 293 kts 193°
2026-05-04 10:10 13.79822 100.87653 10271 ft 296 kts 194°
2026-05-04 10:10 13.77843 100.87130 9978 ft 291 kts 194°
2026-05-04 10:10 13.75891 100.86597 9602 ft 290 kts 194°
2026-05-04 10:10 13.73939 100.86061 9131 ft 291 kts 194°
2026-05-04 10:11 13.71988 100.85526 8778 ft 289 kts 194°
2026-05-04 10:11 13.70087 100.85005 8436 ft 286 kts 194°
2026-05-04 10:11 13.68146 100.84474 8102 ft 284 kts 193°
2026-05-04 10:11 13.66262 100.83959 7697 ft 285 kts 194°
2026-05-04 10:12 13.64356 100.83436 7426 ft 282 kts 193°
2026-05-04 10:12 13.62436 100.82909 7054 ft 282 kts 194°
2026-05-04 10:12 13.60542 100.82389 6733 ft 281 kts 193°
2026-05-04 10:12 13.58682 100.81884 6440 ft 278 kts 193°
2026-05-04 10:13 13.56967 100.81418 6089 ft 277 kts 193°
2026-05-04 10:13 13.55115 100.80908 5743 ft 274 kts 192°
2026-05-04 10:13 13.53275 100.80406 5443 ft 274 kts 193°
2026-05-04 10:13 13.51451 100.79908 5210 ft 270 kts 193°
2026-05-04 10:14 13.49624 100.79408 4755 ft 274 kts 193°
2026-05-04 10:14 13.47780 100.78907 4420 ft 272 kts 193°
2026-05-04 10:16 13.35800 100.74465 3974 ft 274 kts 244°
2026-05-04 10:16 13.35395 100.72535 3977 ft 284 kts 270°
2026-05-04 10:16 13.35791 100.70560 3971 ft 283 kts 294°
2026-05-04 10:16 13.36855 100.68918 3958 ft 269 kts 319°
2026-05-04 10:17 13.38359 100.67906 3972 ft 252 kts 331°
2026-05-04 10:17 13.39862 100.66999 3969 ft 249 kts 331°
2026-05-04 10:19 13.50014 100.68588 2817 ft 200 kts 15°
2026-05-04 10:19 13.51387 100.68951 2660 ft 208 kts 15°
2026-05-04 10:19 13.52788 100.69320 2440 ft 211 kts 15°
2026-05-04 10:19 13.54181 100.69680 2236 ft 203 kts 14°
2026-05-04 10:20 13.55523 100.70034 2012 ft 193 kts 15°
2026-05-04 10:20 13.56776 100.70364 1807 ft 178 kts 15°
2026-05-04 10:20 13.57930 100.70668 1578 ft 165 kts 15°
2026-05-04 10:20 13.59064 100.70965 1505 ft 167 kts 15°
2026-05-04 10:21 13.60198 100.71265 1345 ft 171 kts 15°
2026-05-04 10:21 13.61334 100.71561 1149 ft 165 kts 16°
2026-05-04 10:21 13.62475 100.71863 938 ft 173 kts 14°
2026-05-04 10:21 13.63603 100.72143 686 ft 157 kts 15°
2026-05-04 10:22 13.65525 100.72651 269 ft 146 kts 16°
2026-05-04 10:22 13.66489 100.72917 50 ft 140 kts 14°
2026-05-04 10:22 13.67369 100.73148 19 ft 119 kts 14°
2026-05-04 10:23 13.68021 100.73320 22 ft 74 kts 14°
2026-05-04 10:23 13.68405 100.73421 16 ft 50 kts 14°
2026-05-04 10:25 13.68786 100.73778 18 ft 8 kts 102°
2026-05-04 10:25 13.68771 100.73844 19 ft 13 kts 104°
2026-05-04 10:25 13.68743 100.73954 19 ft 15 kts 104°
2026-05-04 10:25 13.68723 100.74034 19 ft 11 kts 104°